KF0AIT Weather Reports


time (UTC)temp
C
wind
direction
speed
KPH
gust
KPH
rain 1hr
cm
rain 24hr
cm
rain mn
cm
humidity
%
barometer
mb
20260905170003 25 157 0.0 3.2 0.00 0.00 0.00 66 1010.2
20260905165403 24 157 0.0 3.2 0.00 0.00 0.00 66 1010.2
20260905164503 24 0 0.0 0.0 0.00 0.00 0.00 67 1010.2
20260905163603 24 0 0.0 0.0 0.00 0.00 0.00 67 1010.2
20260905162703 23 157 0.0 1.6 0.00 0.00 0.00 70 1010.2
20260905161824 23 157 0.0 1.6 0.00 0.00 0.00 70 1010.2
20260905160924 22 157 0.0 1.6 0.00 0.00 0.00 71 1010.2
20260905160003 22 157 0.0 1.6 0.00 0.00 0.00 71 1010.2
20260905155403 22 157 0.0 1.6 0.00 0.00 0.00 71 1010.2
20260905154503 22 157 1.6 1.6 0.00 0.00 0.00 71 1010.2
20260905153603 22 0 0.0 0.0 0.00 0.00 0.00 71 1010.2
20260905152703 22 0 0.0 0.0 0.00 0.00 0.00 71 1010.2
20260905151803 22 157 0.0 3.2 0.00 0.00 0.00 71 1010.2
20260905150903 21 0 0.0 0.0 0.00 0.00 0.00 71 1010.2
20260905150003 21 0 0.0 0.0 0.00 0.00 0.00 71 1010.2
20260905145403 21 0 0.0 0.0 0.00 0.00 0.00 71 1010.2
20260905144503 21 157 0.0 1.6 0.00 0.00 0.00 71 1010.2
20260905143603 21 0 0.0 0.0 0.00 0.00 0.00 72 1010.2
20260905142703 21 0 0.0 0.0 0.00 0.00 0.00 73 1010.2
20260905141803 21 135 0.0 1.6 0.00 0.00 0.00 72 1010.2
20260905140903 21 0 0.0 0.0 0.00 0.00 0.00 73 1010.2
20260905140003 21 135 0.0 1.6 0.00 0.00 0.00 73 1011.3
20260905135403 21 135 1.6 1.6 0.00 0.00 0.00 74 1011.3
20260905134503 21 135 0.0 3.2 0.00 0.00 0.00 75 1011.3
20260905133603 21 135 1.6 6.4 0.00 0.00 0.00 75 1011.3
20260905132724 21 135 0.0 1.6 0.00 0.00 0.00 76 1012.3
20260905131803 21 0 0.0 0.0 0.00 0.00 0.00 76 1012.3
20260905130903 21 161 0.0 1.6 0.00 0.00 0.00 77 1012.3
20260905130003 20 149 0.0 3.2 0.00 0.00 0.00 78 1012.3
20260905125403 20 157 0.0 1.6 0.00 0.00 0.00 79 1012.3
20260905124524 21 0 0.0 0.0 0.00 0.00 0.00 79 1012.3
20260905123603 21 157 0.0 1.6 0.00 0.00 0.00 80 1012.3
20260905122724 21 0 0.0 0.0 0.00 0.00 0.00 81 1012.3
20260905121803 21 0 0.0 0.0 0.00 0.00 0.00 80 1012.3
20260905120924 21 0 0.0 0.0 0.00 0.00 0.00 81 1013.4
20260905120024 21 202 0.0 1.6 0.00 0.00 0.00 81 1013.4
20260905115403 28 217 0.0 3.2 0.00 0.00 0.00 52 1013.4
20260905114503 28 0 0.0 0.0 0.00 0.00 0.00 52 1013.4
20260905113603 28 0 0.0 0.0 0.00 0.00 0.00 52 1013.4
20260905112703 28 0 0.0 0.0 0.00 0.00 0.00 52 1013.4
20260905111803 28 292 0.0 1.6 0.00 0.00 0.00 52 1013.4
20260905110903 28 225 0.0 1.6 0.00 0.00 0.00 52 1012.3
20260905110003 28 225 0.0 1.6 0.00 0.00 0.00 52 1012.3
20260905105403 28 225 0.0 1.6 0.00 0.00 0.00 52 1012.3
20260905104503 28 217 0.0 4.8 0.00 0.00 0.00 52 1012.3
20260905103603 28 169 0.0 4.8 0.00 0.00 0.00 52 1012.3
20260905102703 28 174 3.2 4.8 0.00 0.00 0.00 52 1011.3
20260905101824 28 0 0.0 0.0 0.00 0.00 0.00 52 1011.3
20260905100903 28 0 0.0 0.0 0.00 0.00 0.00 52 1009.2
20260905100003 28 0 0.0 0.0 0.00 0.00 0.00 52 1009.2
20260905095403 28 0 0.0 0.0 0.00 0.00 0.00 52 1009.2
20260905094503 28 0 0.0 0.0 0.00 0.00 0.00 52 1010.2
20260905093603 28 0 0.0 0.0 0.00 0.00 0.00 52 1010.2
20260905092703 28 0 0.0 0.0 0.00 0.00 0.00 52 1010.2
20260905091803 28 0 0.0 0.0 0.00 0.00 0.00 52 1010.2
20260905090903 28 0 0.0 0.0 0.00 0.00 0.00 52 1011.3
20260905090003 28 0 0.0 0.0 0.00 0.00 0.00 52 1011.3
20260905085403 28 0 0.0 0.0 0.00 0.00 0.00 52 1011.3
20260905084503 28 0 0.0 0.0 0.00 0.00 0.00 52 1010.2
20260905083624 28 0 0.0 0.0 0.00 0.00 0.00 52 1010.2
20260905082703 28 0 0.0 0.0 0.00 0.00 0.00 52 1010.2
20260905081803 28 0 0.0 0.0 0.00 0.00 0.00 52 1010.2
20260905080903 28 112 0.0 1.6 0.00 0.00 0.00 52 1010.2
20260905080003 28 112 0.0 3.2 0.00 0.00 0.00 52 1010.2
20260905075403 28 112 0.0 3.2 0.00 0.00 0.00 52 1010.2
20260905074503 28 0 0.0 0.0 0.00 0.00 0.00 52 1010.2
20260905073603 28 0 0.0 0.0 0.00 0.00 0.00 52 1010.2
20260905072703 28 0 0.0 0.0 0.00 0.00 0.00 52 1010.2
20260905071803 28 90 0.0 3.2 0.00 0.00 0.00 52 1010.2
20260905070924 28 0 0.0 0.0 0.00 0.00 0.00 52 1010.2
20260905070003 28 0 0.0 0.0 0.00 0.00 0.00 52 1010.2
20260905065403 28 0 0.0 0.0 0.00 0.00 0.00 52 1010.2
20260905064503 28 0 0.0 0.0 0.00 0.00 0.00 52 1010.2
20260905063624 28 0 0.0 0.0 0.00 0.00 0.00 52 1010.2
20260905062703 28 0 0.0 0.0 0.00 0.00 0.00 52 1010.2
20260905061803 28 0 0.0 0.0 0.00 0.00 0.00 52 1010.2
20260905060903 28 0 0.0 0.0 0.00 0.00 0.00 52 1010.2
20260905060003 28 0 0.0 0.0 0.00 0.00 0.00 52 1010.2
20260905055403 28 0 0.0 0.0 0.00 0.00 0.00 52 1010.2
20260905054503 28 0 0.0 0.0 0.00 0.00 0.00 52 1010.2
20260905053603 28 0 0.0 0.0 0.00 0.00 0.00 52 1010.2
20260905052703 28 0 0.0 0.0 0.00 0.00 0.00 52 1010.2
20260905051803 28 0 0.0 0.0 0.00 0.00 0.00 52 1010.2
20260905050924 28 0 0.0 0.0 0.00 0.00 0.00 52 1010.2
20260905050003 28 0 0.0 0.0 0.00 0.00 0.00 52 1009.2
20260905045403 28 0 0.0 0.0 0.00 0.00 0.00 52 1009.2
20260905044503 28 0 0.0 0.0 0.00 0.00 0.00 52 1009.2
20260905043603 28 0 0.0 0.0 0.00 0.00 0.00 52 1009.2
20260905042703 28 0 0.0 0.0 0.00 0.00 0.00 52 1009.2
20260905041824 28 0 0.0 0.0 0.00 0.00 0.00 52 1009.2
20260905040903 28 0 0.0 0.0 0.00 0.00 0.00 52 1009.2
20260905040003 28 0 0.0 0.0 0.00 0.00 0.00 52 1009.2
20260905035403 28 0 0.0 0.0 0.00 0.00 0.00 52 1009.2
20260905034524 28 0 0.0 0.0 0.00 0.00 0.00 52 1009.2
20260905033603 28 0 0.0 0.0 0.00 0.00 0.00 52 1009.2
20260905032703 28 0 0.0 0.0 0.00 0.00 0.00 52 1009.2
20260905031824 28 0 0.0 0.0 0.00 0.00 0.00 52 1009.2
20260905030924 28 0 0.0 0.0 0.00 0.00 0.00 52 1009.2
20260905030003 28 90 0.0 3.2 0.00 0.00 0.00 52 1009.2
20260905025403 28 90 3.2 3.2 0.00 0.00 0.00 52 1009.2
20260905024503 28 0 0.0 0.0 0.00 0.00 0.00 52 1009.2
20260905023603 28 0 0.0 0.0 0.00 0.00 0.00 52 1009.2
20260905022703 28 90 0.0 4.8 0.00 0.00 0.00 52 1009.2
20260905021803 28 0 0.0 0.0 0.00 0.00 0.00 52 1009.2
20260905020924 28 0 0.0 0.0 0.00 0.00 0.00 52 1009.2
20260905020024 28 67 0.0 1.6 0.00 0.00 0.00 52 1008.1
20260905015424 28 67 0.0 1.6 0.00 0.00 0.00 52 1008.1
20260905014503 28 67 0.0 1.6 0.00 0.00 0.00 52 1008.1
20260905013624 28 0 0.0 0.0 0.00 0.00 0.00 52 1008.1
20260905012724 28 0 0.0 0.0 0.00 0.00 0.00 52 1008.1
20260905011824 28 0 0.0 0.0 0.00 0.00 0.00 52 1008.1
20260905010903 28 0 0.0 0.0 0.00 0.00 0.00 52 1008.1
20260905010004 28 67 0.0 1.6 0.00 0.00 0.00 52 1008.1
20260905005424 28 67 0.0 1.6 0.00 0.00 0.00 52 1008.1
20260905004503 28 0 0.0 0.0 0.00 0.00 0.00 52 1008.1
20260905003603 28 0 0.0 0.0 0.00 0.00 0.00 52 1008.1
20260905002703 28 67 0.0 1.6 0.00 0.00 0.00 52 1008.1
20260905001803 28 67 1.6 1.6 0.00 0.00 0.00 52 1008.1
20260905000903 28 67 1.6 1.6 0.00 0.00 0.00 52 1008.1
20260905000003 28 0 0.0 0.0 0.00 0.00 0.00 52 1008.1
20260904235403 28 0 0.0 0.0 0.00 0.00 0.00 52 1008.1
20260904234503 28 0 0.0 0.0 0.00 0.00 0.00 52 1008.1
20260904233624 28 0 0.0 0.0 0.00 0.00 0.00 52 1008.1
20260904232703 28 67 0.0 1.6 0.00 0.00 0.00 52 1008.1
20260904231803 28 0 0.0 0.0 0.00 0.00 0.00 52 1008.1
20260904230903 28 0 0.0 0.0 0.00 0.00 0.00 52 1008.1
20260904230003 28 73 0.0 3.2 0.00 0.00 0.00 52 1008.1
20260904225403 28 73 3.2 3.2 0.00 0.00 0.00 52 1008.1
20260904224503 28 67 0.0 3.2 0.00 0.00 0.00 52 1008.1
20260904223603 28 45 0.0 1.6 0.00 0.00 0.00 52 1008.1
20260904222703 28 90 0.0 3.2 0.00 0.00 0.00 52 1008.1
20260904221803 28 45 0.0 1.6 0.00 0.00 0.00 52 1008.1
20260904220903 28 0 0.0 0.0 0.00 0.00 0.00 52 1008.1
20260904220003 28 337 0.0 3.2 0.00 0.00 0.00 52 1008.1
20260904215403 28 337 0.0 1.6 0.00 0.00 0.00 52 1008.1
20260904214503 28 337 0.0 1.6 0.00 0.00 0.00 52 1008.1
20260904213603 28 0 0.0 0.0 0.00 0.00 0.00 52 1008.1
20260904212703 28 0 0.0 0.0 0.00 0.00 0.00 52 1008.1
20260904211803 28 0 0.0 0.0 0.00 0.00 0.00 52 1008.1
20260904210924 28 0 0.0 0.0 0.00 0.00 0.00 52 1008.1
20260904210003 28 337 0.0 1.6 0.00 0.00 0.00 52 1008.1
20260904205403 28 337 0.0 1.6 0.00 0.00 0.00 52 1008.1
20260904204503 28 0 0.0 0.0 0.00 0.00 0.00 52 1008.1
20260904203603 28 0 0.0 0.0 0.00 0.00 0.00 52 1008.1
20260904202703 28 337 0.0 3.2 0.00 0.00 0.00 52 1008.1
20260904201803 28 4 3.2 3.2 0.00 0.00 0.00 52 1008.1
20260904200903 28 67 0.0 1.6 0.00 0.00 0.00 52 1008.1
20260904200003 28 67 0.0 4.8 0.00 0.00 0.00 52 1008.1
20260904195403 28 0 0.0 0.0 0.00 0.00 0.00 52 1008.1
20260904194503 28 67 0.0 1.6 0.00 0.00 0.00 52 1008.1
20260904193603 28 0 0.0 0.0 0.00 0.00 0.00 52 1008.1
20260904192724 28 67 0.0 6.4 0.00 0.00 0.00 52 1009.2
20260904191824 28 0 0.0 0.0 0.00 0.00 0.00 52 1009.2
20260904190903 28 22 0.0 1.6 0.00 0.00 0.00 52 1009.2
20260904190024 28 45 0.0 6.4 0.00 0.00 0.00 52 1009.2
20260904185403 28 53 0.0 6.4 0.00 0.00 0.00 52 1009.2
20260904184503 28 67 0.0 1.6 0.00 0.00 0.00 52 1009.2
20260904183603 28 58 1.6 1.6 0.00 0.00 0.00 52 1009.2
20260904182703 28 0 0.0 0.0 0.00 0.00 0.00 52 1008.1
20260904181803 28 0 0.0 0.0 0.00 0.00 0.00 52 1008.1
20260904180924 28 0 0.0 0.0 0.00 0.00 0.00 52 1008.1
20260904180024 28 0 0.0 0.0 0.00 0.00 0.00 52 1008.1
20260904175403 28 0 0.0 0.0 0.00 0.00 0.00 52 1008.1
20260904174503 28 22 0.0 1.6 0.00 0.00 0.00 52 1008.1
20260904173603 28 22 0.0 1.6 0.00 0.00 0.00 52 1008.1
20260904172724 28 22 1.6 1.6 0.00 0.00 0.00 55 1008.1
20260904171803 28 0 0.0 0.0 0.00 0.00 0.00 55 1008.1
20260904170903 27 0 0.0 0.0 0.00 0.00 0.00 58 1008.1